User: anonymous   Login
Location: Caltech
(34.1382°N, 118.1253°W)
Time: 11:05:04
(UTC-07:00)
Language:

Cosmos 1980 Rocket - Orbit

View from above orbital plane
View from above orbital plane
View from above satellite
View from above satellite

Ground track
Ground track

The orbit data is extracted from the following two-line orbital elements,

1 19650U 88102B   15090.49649580 -.00000031  00000-0  87657-5 0  9993
2 19650 070.9980 275.4817 0015263 325.3882 034.6246 14.15708084361539
Epoch (UTC): 31 March 2015 11:54:57
Eccentricity: 0.0015263
inclination: 70.9980°
perigee height: 829 km
apogee height: 851 km
right ascension of ascending node: 275.4817°
argument of perigee: 325.3882°
revolutions per day: 14.15708084
mean anomaly at epoch: 34.6246°
orbit number at epoch: 36153

The dashed part of the orbit path shows where the satellite is in the earth's shadow,  

DLR